DB0LC-2 Weather Reports


Display with metric or nautical units.
time (UTC)temp
F
wind
direction
speed
MPH
gust
MPH
rain 1hr
in
rain 24hr
in
rain mn
in
humidity
%
barometer
mb
20260901143033 68 0 0.0 0.0 0.00 0.00 0.00 60 918.5
20260901142011 68 0 0.0 0.0 0.00 0.00 0.00 59 918.5
20260901141025 68 0 0.0 0.0 0.00 0.00 0.00 56 918.3
20260901140002 68 0 0.0 0.0 0.00 0.00 0.00 60 918.4
20260901132911 68 0 0.0 0.0 0.00 0.00 0.00 60 918.6
20260901131857 68 0 0.0 0.0 0.00 0.00 0.00 57 918.6
20260901130846 68 0 0.0 0.0 0.00 0.00 0.00 60 918.8
20260901125849 68 0 0.0 0.0 0.00 0.00 0.00 60 918.7
20260901125847 68 0 0.0 0.0 0.00 0.00 0.00 60 918.7
20260901124820 68 0 0.0 0.0 0.00 0.00 0.00 57 918.9
20260901123820 68 0 0.0 0.0 0.00 0.00 0.00 60 918.9
20260901122743 68 0 0.0 0.0 0.00 0.00 0.00 57 919.0
20260901115720 68 0 0.0 0.0 0.00 0.00 0.00 56 919.1
20260901114653 68 0 0.0 0.0 0.00 0.00 0.00 60 919.2
20260901113653 68 0 0.0 0.0 0.00 0.00 0.00 59 919.1
20260901112642 69 0 0.0 0.0 0.00 0.00 0.00 59 919.2
20260901112640 69 0 0.0 0.0 0.00 0.00 0.00 59 919.1
20260901111623 68 0 0.0 0.0 0.00 0.00 0.00 60 919.2
20260901110528 68 0 0.0 0.0 0.00 0.00 0.00 58 919.4
20260901105438 69 0 0.0 0.0 0.00 0.00 0.00 60 919.3
20260901104404 68 0 0.0 0.0 0.00 0.00 0.00 60 919.2
20260901103323 68 0 0.0 0.0 0.00 0.00 0.00 59 919.2
20260901102249 69 0 0.0 0.0 0.00 0.00 0.00 59 919.2
20260901101211 68 0 0.0 0.0 0.00 0.00 0.00 60 919.4
20260901100147 68 0 0.0 0.0 0.00 0.00 0.00 60 919.5
20260901095136 68 0 0.0 0.0 0.00 0.00 0.00 56 919.4
20260901094109 68 0 0.0 0.0 0.00 0.00 0.00 60 919.5
20260901093034 68 0 0.0 0.0 0.00 0.00 0.00 61 919.5
20260901092028 68 0 0.0 0.0 0.00 0.00 0.00 58 919.4
20260901085857 68 0 0.0 0.0 0.00 0.00 0.00 60 919.6
20260901084831 68 0 0.0 0.0 0.00 0.00 0.00 58 919.4
20260901083802 68 0 0.0 0.0 0.00 0.00 0.00 60 919.4
20260901082739 68 0 0.0 0.0 0.00 0.00 0.00 61 919.3
20260901081718 67 0 0.0 0.0 0.00 0.00 0.00 58 919.4
20260901081716 67 0 0.0 0.0 0.00 0.00 0.00 58 919.5
20260901074630 69 0 0.0 0.0 0.00 0.00 0.00 60 919.1
20260901074628 69 0 0.0 0.0 0.00 0.00 0.00 60 919.2
20260901073521 68 0 0.0 0.0 0.00 0.00 0.00 60 919.0
20260901071359 68 0 0.0 0.0 0.00 0.00 0.00 56 919.0
20260901070323 68 0 0.0 0.0 0.00 0.00 0.00 61 918.9
20260901065305 68 0 0.0 0.0 0.00 0.00 0.00 61 918.8
20260901064233 68 0 0.0 0.0 0.00 0.00 0.00 56 918.9
20260901063142 68 0 0.0 0.0 0.00 0.00 0.00 60 918.9
20260901062118 68 0 0.0 0.0 0.00 0.00 0.00 61 918.9
20260901061018 68 0 0.0 0.0 0.00 0.00 0.00 58 918.9
20260901055925 68 0 0.0 0.0 0.00 0.00 0.00 60 919.0
20260901054825 68 0 0.0 0.0 0.00 0.00 0.00 60 918.9
20260901053745 68 0 0.0 0.0 0.00 0.00 0.00 58 918.8
20260901053742 68 0 0.0 0.0 0.00 0.00 0.00 58 918.8
20260901052701 69 0 0.0 0.0 0.00 0.00 0.00 60 918.8
20260901051624 68 0 0.0 0.0 0.00 0.00 0.00 61 918.7
20260901050534 68 0 0.0 0.0 0.00 0.00 0.00 58 918.8
20260901045514 68 0 0.0 0.0 0.00 0.00 0.00 60 918.7
20260901044420 68 0 0.0 0.0 0.00 0.00 0.00 61 918.6
20260901043332 67 0 0.0 0.0 0.00 0.00 0.00 58 918.6
20260901041154 68 0 0.0 0.0 0.00 0.00 0.00 61 918.7
20260901040053 67 0 0.0 0.0 0.00 0.00 0.00 60 918.8
20260901034949 68 0 0.0 0.0 0.00 0.00 0.00 60 918.9
20260901033937 68 0 0.0 0.0 0.00 0.00 0.00 61 918.7
20260901032915 67 0 0.0 0.0 0.00 0.00 0.00 60 918.7
20260901032913 67 0 0.0 0.0 0.00 0.00 0.00 60 918.8
20260901031849 68 0 0.0 0.0 0.00 0.00 0.00 59 918.7
20260901030812 68 0 0.0 0.0 0.00 0.00 0.00 61 918.7
20260901025735 67 0 0.0 0.0 0.00 0.00 0.00 60 918.9
20260901024646 68 0 0.0 0.0 0.00 0.00 0.00 59 919.1
20260901023545 68 0 0.0 0.0 0.00 0.00 0.00 61 919.0
20260901022458 68 0 0.0 0.0 0.00 0.00 0.00 60 919.0
20260901021355 69 0 0.0 0.0 0.00 0.00 0.00 60 919.1
20260901020324 68 0 0.0 0.0 0.00 0.00 0.00 61 919.2
20260901015230 67 0 0.0 0.0 0.00 0.00 0.00 60 919.1
20260901013053 68 0 0.0 0.0 0.00 0.00 0.00 61 919.1
20260901011938 68 0 0.0 0.0 0.00 0.00 0.00 60 919.0
20260901010859 69 0 0.0 0.0 0.00 0.00 0.00 60 919.0
20260901005827 68 0 0.0 0.0 0.00 0.00 0.00 61 919.2
20260901004747 68 0 0.0 0.0 0.00 0.00 0.00 60 919.0
20260901003710 69 0 0.0 0.0 0.00 0.00 0.00 60 918.8
20260901002621 68 0 0.0 0.0 0.00 0.00 0.00 61 919.0
20260901001521 68 0 0.0 0.0 0.00 0.00 0.00 60 919.1
20260901000443 69 0 0.0 0.0 0.00 0.00 0.00 60 919.1
20260831235351 68 0 0.0 0.0 0.00 0.00 0.00 61 919.1
20260831234315 67 0 0.0 0.0 0.00 0.00 0.00 60 919.1
20260831232137 68 0 0.0 0.0 0.00 0.00 0.00 61 919.1
20260831231037 68 0 0.0 0.0 0.00 0.00 0.00 59 919.0
20260831230010 68 0 0.0 0.0 0.00 0.00 0.00 61 919.0
20260831224933 68 0 0.0 0.0 0.00 0.00 0.00 61 919.0
20260831223834 67 0 0.0 0.0 0.00 0.00 0.00 59 919.1
20260831223832 67 0 0.0 0.0 0.00 0.00 0.00 59 919.0
20260831221708 68 0 0.0 0.0 0.00 0.00 0.00 61 919.0
20260831220610 68 0 0.0 0.0 0.00 0.00 0.00 58 919.0
20260831215505 68 0 0.0 0.0 0.00 0.00 0.00 61 919.1
20260831214441 68 0 0.0 0.0 0.00 0.00 0.00 61 919.0
20260831213302 68 0 0.0 0.0 0.00 0.00 0.00 57 918.9
20260831213300 68 0 0.0 0.0 0.00 0.00 0.00 57 919.0
20260831212200 68 0 0.0 0.0 0.00 0.00 0.00 61 918.8
20260831211112 68 0 0.0 0.0 0.00 0.00 0.00 60 918.8
20260831210014 68 0 0.0 0.0 0.00 0.00 0.00 60 918.7
20260831205000 68 0 0.0 0.0 0.00 0.00 0.00 61 918.8
20260831203921 68 0 0.0 0.0 0.00 0.00 0.00 58 918.7
20260831202833 68 0 0.0 0.0 0.00 0.00 0.00 61 918.6
20260831202831 68 0 0.0 0.0 0.00 0.00 0.00 61 918.7
20260831201755 68 0 0.0 0.0 0.00 0.00 0.00 61 918.6
20260831200706 68 0 0.0 0.0 0.00 0.00 0.00 57 918.4
20260831195605 68 0 0.0 0.0 0.00 0.00 0.00 61 918.3
20260831194505 68 0 0.0 0.0 0.00 0.00 0.00 60 918.3
20260831193406 69 0 0.0 0.0 0.00 0.00 0.00 60 918.3
20260831192316 68 0 0.0 0.0 0.00 0.00 0.00 61 918.4
20260831191239 68 0 0.0 0.0 0.00 0.00 0.00 60 918.1
20260831190203 69 0 0.0 0.0 0.00 0.00 0.00 61 917.9
20260831185133 68 0 0.0 0.0 0.00 0.00 0.00 61 917.8
20260831185131 68 0 0.0 0.0 0.00 0.00 0.00 61 917.8
20260831184041 68 0 0.0 0.0 0.00 0.00 0.00 59 917.6
20260831181927 68 0 0.0 0.0 0.00 0.00 0.00 61 917.1
20260831180858 68 0 0.0 0.0 0.00 0.00 0.00 58 916.9
20260831175822 68 0 0.0 0.0 0.00 0.00 0.00 61 916.7
20260831174747 68 0 0.0 0.0 0.00 0.00 0.00 61 916.7
20260831173707 69 0 0.0 0.0 0.00 0.00 0.00 60 916.6
20260831172606 68 0 0.0 0.0 0.00 0.00 0.00 61 916.4
20260831171517 68 0 0.0 0.0 0.00 0.00 0.00 59 916.2
20260831170409 68 0 0.0 0.0 0.00 0.00 0.00 62 916.0
20260831165257 68 0 0.0 0.0 0.00 0.00 0.00 60 915.9
20260831164208 68 0 0.0 0.0 0.00 0.00 0.00 62 916.0
20260831164205 68 0 0.0 0.0 0.00 0.00 0.00 62 916.0
20260831163151 67 0 0.0 0.0 0.00 0.00 0.00 61 916.0
20260831162104 68 0 0.0 0.0 0.00 0.00 0.00 57 915.9
20260831161032 68 0 0.0 0.0 0.00 0.00 0.00 60 915.9
20260831153849 69 0 0.0 0.0 0.00 0.00 0.00 59 915.8
20260831153846 69 0 0.0 0.0 0.00 0.00 0.00 59 915.8
20260831152745 68 0 0.0 0.0 0.00 0.00 0.00 61 915.9
20260831151709 68 0 0.0 0.0 0.00 0.00 0.00 59 916.0
20260831150633 68 0 0.0 0.0 0.00 0.00 0.00 61 916.1
20260831145613 68 0 0.0 0.0 0.00 0.00 0.00 61 916.1
20260831144557 69 0 0.0 0.0 0.00 0.00 0.00 60 916.0